Location: Brede
(50.9167°N, 0.6000°E)
Time: 18:50:17
(UTC+00:00)

COBE Rocket - Pass Details

Date: 08 August 2020
Orbit: 681 x 781 km, 97.1° (Epoch: 24 September)

Event Time Altitude Azimuth Distance (km) Brightness Sun altitude
Exits shadow 02:39:52 22° 200° (SSW) 1,470 4.9 -14.8°
Maximum altitude 02:42:30 46° 263° (W) 927 4.1 -14.5°
Drops below altitude 10° 02:47:00 10° 336° (NNW) 2,136 6.7 -14.1°
Sets 02:49:20 0° 343° (NNW) 3,057 7.6 -13.9°
